Time,TemperatureF,DewpointF,PressureIn,WindDirection,WindDirectionDegrees,WindSpeedMPH,WindSpeedGustMPH,Humidity,HourlyPrecipIn,Conditions,Clouds,dailyrainin,SoftwareType,DateUTC
2013-06-15 00:00:00,60.5,57.0,29.86,West,275,0.0,5.0,88,0.00,RA,,0.00,WeatherDisplay:10.37,2013-06-15 04:00:00,
2013-06-15 00:10:00,59.7,56.8,29.86,West,278,2.0,5.0,90,0.00,FEW,,0.00,WeatherDisplay:10.37,2013-06-15 04:10:00,
2013-06-15 00:30:00,58.7,56.1,29.87,West,279,0.0,3.0,91,0.00,FEW,,0.00,WeatherDisplay:10.37,2013-06-15 04:30:00,
2013-06-15 00:40:00,58.4,55.8,29.87,West,279,0.0,0.0,91,0.00,FEW,,0.00,WeatherDisplay:10.37,2013-06-15 04:40:00,
2013-06-15 00:50:00,58.0,55.7,29.87,West,279,0.0,0.0,92,0.00,FEW,,0.00,WeatherDisplay:10.37,2013-06-15 04:50:00,
2013-06-15 01:00:00,57.5,55.2,29.87,West,279,0.0,2.0,92,0.00,FEW,,0.00,WeatherDisplay:10.37,2013-06-15 05:00:00,
2013-06-15 01:10:00,57.0,55.0,29.87,West,279,0.0,3.0,93,0.00,FEW,,0.00,WeatherDisplay:10.37,2013-06-15 05:10:00,
2013-06-15 01:20:00,56.9,54.9,29.87,West,280,0.0,3.0,93,0.00,FEW,,0.00,WeatherDisplay:10.37,2013-06-15 05:20:00,
2013-06-15 01:30:00,56.8,54.8,29.87,West,276,1.0,3.0,93,0.00,FEW,,0.00,WeatherDisplay:10.37,2013-06-15 05:30:00,
2013-06-15 01:40:00,56.9,54.9,29.88,West,264,0.0,3.0,93,0.00,FEW,,0.00,WeatherDisplay:10.37,2013-06-15 05:40:00,
2013-06-15 01:50:00,56.7,55.0,29.88,West,264,0.0,3.0,94,0.00,FEW,,0.00,WeatherDisplay:10.37,2013-06-15 05:50:00,
2013-06-15 02:00:00,56.6,54.6,29.88,WNW,294,1.0,3.0,93,0.00,FEW,,0.00,WeatherDisplay:10.37,2013-06-15 06:00:00,
2013-06-15 02:10:00,57.1,55.1,29.89,NW,304,1.0,5.0,93,0.00,FEW,,0.00,WeatherDisplay:10.37,2013-06-15 06:10:00,
2013-06-15 02:20:00,57.2,55.2,29.89,NW,307,0.0,5.0,93,0.00,FEW,,0.00,WeatherDisplay:10.37,2013-06-15 06:20:00,
2013-06-15 02:30:00,57.2,55.2,29.89,West,268,1.0,5.0,93,0.00,FEW,,0.00,WeatherDisplay:10.37,2013-06-15 06:30:00,
2013-06-15 02:40:00,57.1,55.1,29.89,West,260,1.0,5.0,93,0.00,FEW,,0.00,WeatherDisplay:10.37,2013-06-15 06:40:00,
2013-06-15 02:50:00,56.9,54.6,29.90,West,268,0.0,3.0,92,0.00,FEW,,0.00,WeatherDisplay:10.37,2013-06-15 06:50:00,
2013-06-15 03:00:00,56.7,54.4,29.90,West,274,0.0,5.0,92,0.00,FEW,,0.00,WeatherDisplay:10.37,2013-06-15 07:00:00,
2013-06-15 03:10:00,56.3,54.3,29.90,WNW,285,2.0,5.0,93,0.00,CLR,,0.00,WeatherDisplay:10.37,2013-06-15 07:10:00,
2013-06-15 03:20:00,56.4,54.4,29.90,West,281,2.0,8.0,93,0.00,CLR,,0.00,WeatherDisplay:10.37,2013-06-15 07:20:00,
2013-06-15 03:30:00,56.5,54.5,29.90,West,273,3.0,6.0,93,0.00,CLR,,0.00,WeatherDisplay:10.37,2013-06-15 07:30:00,
2013-06-15 03:40:00,56.2,53.9,29.90,WNW,285,3.0,6.0,92,0.00,CLR,,0.00,WeatherDisplay:10.37,2013-06-15 07:40:00,
2013-06-15 03:50:00,56.0,53.7,29.90,NW,309,2.0,6.0,92,0.00,CLR,,0.00,WeatherDisplay:10.37,2013-06-15 07:50:00,
2013-06-15 04:00:00,56.2,53.9,29.90,WNW,283,1.0,6.0,92,0.00,CLR,,0.00,WeatherDisplay:10.37,2013-06-15 08:00:00,
2013-06-15 04:10:00,56.3,54.0,29.90,West,278,2.0,8.0,92,0.00,CLR,,0.00,WeatherDisplay:10.37,2013-06-15 08:10:00,
2013-06-15 04:20:00,56.4,53.8,29.90,West,278,2.0,6.0,91,0.00,CLR,,0.00,WeatherDisplay:10.37,2013-06-15 08:20:00,
2013-06-15 04:30:00,56.3,53.7,29.90,WNW,283,1.0,6.0,91,0.00,CLR,,0.00,WeatherDisplay:10.37,2013-06-15 08:30:00,
2013-06-15 04:40:00,55.7,53.1,29.91,West,278,5.0,6.0,91,0.00,CLR,,0.00,WeatherDisplay:10.37,2013-06-15 08:40:00,
2013-06-15 04:50:00,55.4,53.1,29.91,West,280,0.0,5.0,92,0.00,CLR,,0.00,WeatherDisplay:10.37,2013-06-15 08:50:00,
2013-06-15 05:00:00,54.8,52.5,29.92,NW,313,0.0,2.0,92,0.00,CLR,,0.00,WeatherDisplay:10.37,2013-06-15 09:00:00,
2013-06-15 05:10:00,54.0,52.0,29.92,NW,313,0.0,0.0,93,0.00,FEW,,0.00,WeatherDisplay:10.37,2013-06-15 09:10:00,
2013-06-15 05:20:00,53.2,51.2,29.92,NW,313,0.0,0.0,93,0.00,FEW,,0.00,WeatherDisplay:10.37,2013-06-15 09:20:00,
2013-06-15 05:30:00,52.7,51.0,29.92,NW,313,0.0,0.0,94,0.00,FEW,,0.00,WeatherDisplay:10.37,2013-06-15 09:30:00,
2013-06-15 05:40:00,52.8,51.1,29.92,NW,313,0.0,2.0,94,0.00,FEW,,0.00,WeatherDisplay:10.37,2013-06-15 09:40:00,
2013-06-15 05:50:00,52.6,50.9,29.93,NW,313,0.0,0.0,94,0.00,FEW,,0.00,WeatherDisplay:10.37,2013-06-15 09:50:00,
2013-06-15 06:00:00,52.6,50.9,29.93,NW,313,0.0,0.0,94,0.00,FEW,,0.00,WeatherDisplay:10.37,2013-06-15 10:00:00,
2013-06-15 06:10:00,52.6,51.2,29.93,NW,313,0.0,0.0,95,0.00,FEW,,0.00,WeatherDisplay:10.37,2013-06-15 10:10:00,
2013-06-15 06:20:00,53.1,51.7,29.93,NW,313,0.0,0.0,95,0.00,FEW,,0.00,WeatherDisplay:10.37,2013-06-15 10:20:00,
2013-06-15 06:30:00,54.1,52.7,29.94,NW,313,0.0,0.0,95,0.00,FEW,,0.00,WeatherDisplay:10.37,2013-06-15 10:30:00,
2013-06-15 06:40:00,55.3,53.9,29.94,NW,313,0.0,0.0,95,0.00,FEW,,0.00,WeatherDisplay:10.37,2013-06-15 10:40:00,
2013-06-15 06:50:00,56.7,54.7,29.94,NW,313,0.0,0.0,93,0.00,FEW,,0.00,WeatherDisplay:10.37,2013-06-15 10:50:00,
2013-06-15 07:00:00,58.1,55.2,29.94,NW,313,0.0,3.0,90,0.00,FEW,,0.00,WeatherDisplay:10.37,2013-06-15 11:00:00,
2013-06-15 07:10:00,59.0,55.2,29.95,NNW,327,2.0,6.0,87,0.00,FEW,,0.00,WeatherDisplay:10.37,2013-06-15 11:10:00,
2013-06-15 07:20:00,59.5,55.0,29.96,NNW,328,6.0,6.0,85,0.00,FEW,,0.00,WeatherDisplay:10.37,2013-06-15 11:20:00,
2013-06-15 07:30:00,60.1,54.9,29.95,NNW,328,6.0,9.0,83,0.00,FEW,,0.00,WeatherDisplay:10.37,2013-06-15 11:30:00,
2013-06-15 07:40:00,61.0,55.5,29.95,NW,320,0.0,9.0,82,0.00,FEW,,0.00,WeatherDisplay:10.37,2013-06-15 11:40:00,
2013-06-15 07:50:00,61.7,55.8,29.96,NNW,331,2.0,8.0,81,0.00,FEW,,0.00,WeatherDisplay:10.37,2013-06-15 11:50:00,
2013-06-15 08:00:00,62.4,55.5,29.96,NW,309,6.0,9.0,78,0.00,FEW,,0.00,WeatherDisplay:10.37,2013-06-15 12:00:00,
2013-06-15 08:10:00,63.3,55.6,29.97,NW,304,0.0,9.0,76,0.00,CLR,,0.00,WeatherDisplay:10.37,2013-06-15 12:10:00,
2013-06-15 08:20:00,64.1,56.0,29.97,NNW,328,8.0,10.0,75,0.00,CLR,,0.00,WeatherDisplay:10.37,2013-06-15 12:20:00,
2013-06-15 08:30:00,63.8,54.6,29.98,NNW,335,3.0,14.0,72,0.00,CLR,,0.00,WeatherDisplay:10.37,2013-06-15 12:30:00,
2013-06-15 08:40:00,64.1,54.5,29.98,NW,308,3.0,10.0,71,0.00,CLR,,0.00,WeatherDisplay:10.37,2013-06-15 12:40:00,
2013-06-15 08:50:00,65.0,55.8,29.98,West,278,5.0,6.0,72,0.00,CLR,,0.00,WeatherDisplay:10.37,2013-06-15 12:50:00,
2013-06-15 09:00:00,65.5,54.7,29.98,NW,314,5.0,8.0,68,0.00,CLR,,0.00,WeatherDisplay:10.37,2013-06-15 13:00:00,
2013-06-15 09:10:00,65.7,54.0,29.98,NNW,338,1.0,8.0,66,0.00,CLR,,0.00,WeatherDisplay:10.37,2013-06-15 13:10:00,
2013-06-15 09:20:00,66.5,54.4,29.98,NW,312,5.0,8.0,65,0.00,CLR,,0.00,WeatherDisplay:10.37,2013-06-15 13:20:00,
2013-06-15 09:30:00,66.9,53.9,29.98,WNW,298,6.0,8.0,63,0.00,CLR,,0.00,WeatherDisplay:10.37,2013-06-15 13:30:00,
2013-06-15 09:40:00,67.5,53.6,29.98,North,352,2.0,6.0,61,0.00,CLR,,0.00,WeatherDisplay:10.37,2013-06-15 13:40:00,
2013-06-15 09:50:00,67.8,53.9,29.98,North,356,3.0,9.0,61,0.00,CLR,,0.00,WeatherDisplay:10.37,2013-06-15 13:50:00,
2013-06-15 10:00:00,68.8,54.3,29.97,North,349,0.0,6.0,60,0.00,CLR,,0.00,WeatherDisplay:10.37,2013-06-15 14:00:00,
2013-06-15 10:10:00,69.0,53.6,29.97,NE,50,0.0,6.0,58,0.00,CLR,,0.00,WeatherDisplay:10.37,2013-06-15 14:10:00,
2013-06-15 10:20:00,68.5,50.7,29.97,North,2,1.0,6.0,53,0.00,CLR,,0.00,WeatherDisplay:10.37,2013-06-15 14:20:00,
2013-06-15 10:30:00,69.7,49.6,29.97,NNE,17,3.0,8.0,49,0.00,CLR,,0.00,WeatherDisplay:10.37,2013-06-15 14:30:00,
2013-06-15 10:40:00,69.6,48.5,29.97,NW,305,7.0,7.0,47,0.00,CLR,,0.00,WeatherDisplay:10.37,2013-06-15 14:40:00,
2013-06-15 10:50:00,70.2,49.6,29.97,WNW,284,2.0,6.0,48,0.00,CLR,,0.00,WeatherDisplay:10.37,2013-06-15 14:50:00,
2013-06-15 11:00:00,70.8,50.7,29.96,NE,50,1.0,5.0,49,0.00,CLR,,0.00,WeatherDisplay:10.37,2013-06-15 15:00:00,
2013-06-15 11:10:00,69.6,50.2,29.97,ESE,119,0.0,5.0,50,0.00,FEW,,0.00,WeatherDisplay:10.37,2013-06-15 15:10:00,
2013-06-15 11:20:00,71.0,50.3,29.97,NW,322,3.0,9.0,48,0.00,FEW,,0.00,WeatherDisplay:10.37,2013-06-15 15:20:00,
2013-06-15 11:30:00,71.6,50.9,29.97,NNE,29,2.0,6.0,48,0.00,FEW,,0.00,WeatherDisplay:10.37,2013-06-15 15:30:00,
2013-06-15 11:40:00,71.2,52.1,29.97,North,7,7.0,9.0,51,0.00,FEW,,0.00,WeatherDisplay:10.37,2013-06-15 15:40:00,
2013-06-15 11:50:00,71.3,50.0,29.97,NW,316,1.0,10.0,47,0.00,FEW,,0.00,WeatherDisplay:10.37,2013-06-15 15:50:00,
2013-06-15 12:00:00,71.3,51.7,29.97,WSW,245,1.0,8.0,50,0.00,FEW,,0.00,WeatherDisplay:10.37,2013-06-15 16:00:00,
2013-06-15 12:10:00,72.4,52.2,29.96,NW,315,2.0,9.0,49,0.00,FEW,,0.00,WeatherDisplay:10.37,2013-06-15 16:10:00,
2013-06-15 12:20:00,72.8,50.8,29.96,WSW,254,3.0,12.0,46,0.00,FEW,,0.00,WeatherDisplay:10.37,2013-06-15 16:20:00,
2013-06-15 12:30:00,73.8,49.9,29.95,NW,308,10.0,14.0,43,0.00,FEW,,0.00,WeatherDisplay:10.37,2013-06-15 16:30:00,
2013-06-15 12:40:00,74.4,49.2,29.95,WNW,302,5.0,10.0,41,0.00,FEW,,0.00,WeatherDisplay:10.37,2013-06-15 16:40:00,
2013-06-15 12:50:00,74.6,49.3,29.95,WNW,283,5.0,12.0,41,0.00,FEW,,0.00,WeatherDisplay:10.37,2013-06-15 16:50:00,
2013-06-15 13:00:00,74.3,48.4,29.95,NW,321,12.0,18.0,40,0.00,FEW,,0.00,WeatherDisplay:10.37,2013-06-15 17:00:00,
2013-06-15 13:10:00,74.7,47.4,29.94,WNW,290,8.0,18.0,38,0.00,FEW,,0.00,WeatherDisplay:10.37,2013-06-15 17:10:00,
2013-06-15 13:20:00,75.1,48.5,29.94,WNW,299,12.0,18.0,39,0.00,FEW,,0.00,WeatherDisplay:10.37,2013-06-15 17:20:00,
2013-06-15 13:30:00,75.1,47.0,29.94,NW,320,14.0,23.0,37,0.00,FEW,,0.00,WeatherDisplay:10.37,2013-06-15 17:30:00,
2013-06-15 13:40:00,75.2,46.4,29.94,WNW,302,15.0,24.0,36,0.00,FEW,,0.00,WeatherDisplay:10.37,2013-06-15 17:40:00,
2013-06-15 13:50:00,75.9,47.0,29.93,NW,306,13.0,21.0,36,0.00,FEW,,0.00,WeatherDisplay:10.37,2013-06-15 17:50:00,
2013-06-15 14:00:00,75.0,47.0,29.93,West,275,14.0,23.0,37,0.00,FEW,,0.00,WeatherDisplay:10.37,2013-06-15 18:00:00,
2013-06-15 14:10:00,75.6,47.5,29.92,West,266,7.0,21.0,37,0.00,SCT,,0.00,WeatherDisplay:10.37,2013-06-15 18:10:00,
2013-06-15 14:20:00,76.0,47.8,29.92,West,269,20.0,26.0,37,0.00,SCT,,0.00,WeatherDisplay:10.37,2013-06-15 18:20:00,
2013-06-15 14:30:00,76.3,47.4,29.92,WNW,286,10.0,23.0,36,0.00,SCT,,0.00,WeatherDisplay:10.37,2013-06-15 18:30:00,
2013-06-15 14:40:00,76.3,47.4,29.92,NW,312,12.0,23.0,36,0.00,SCT,,0.00,WeatherDisplay:10.37,2013-06-15 18:40:00,
2013-06-15 14:50:00,76.9,49.4,29.92,WNW,290,8.0,18.0,38,0.00,SCT,,0.00,WeatherDisplay:10.37,2013-06-15 18:50:00,
2013-06-15 15:00:00,76.5,46.8,29.92,West,266,14.0,21.0,35,0.00,SCT,,0.00,WeatherDisplay:10.37,2013-06-15 19:00:00,
2013-06-15 15:10:00,76.4,47.5,29.92,WNW,284,9.0,18.0,36,0.00,SCT,,0.00,WeatherDisplay:10.37,2013-06-15 19:10:00,
2013-06-15 15:20:00,76.9,48.7,29.92,NW,315,16.0,20.0,37,0.00,SCT,,0.00,WeatherDisplay:10.37,2013-06-15 19:20:00,
2013-06-15 15:30:00,77.5,48.5,29.91,NW,304,10.0,23.0,36,0.00,SCT,,0.00,WeatherDisplay:10.37,2013-06-15 19:30:00,
2013-06-15 15:40:00,77.3,47.5,29.91,WNW,298,9.0,20.0,35,0.00,SCT,,0.00,WeatherDisplay:10.37,2013-06-15 19:40:00,
2013-06-15 15:50:00,76.9,48.6,29.91,WNW,284,8.0,16.0,37,0.00,SCT,,0.00,WeatherDisplay:10.37,2013-06-15 19:50:00,
2013-06-15 16:00:00,76.7,49.9,29.91,WNW,303,10.0,20.0,39,0.00,SCT,,0.00,WeatherDisplay:10.37,2013-06-15 20:00:00,
2013-06-15 16:10:00,77.3,48.3,29.90,West,279,8.0,16.0,36,0.00,SCT,,0.00,WeatherDisplay:10.37,2013-06-15 20:10:00,
2013-06-15 16:20:00,76.4,46.7,29.90,WSW,258,15.0,23.0,35,0.00,SCT,,0.00,WeatherDisplay:10.37,2013-06-15 20:20:00,
2013-06-15 16:30:00,76.6,46.9,29.90,West,263,12.0,16.0,35,0.00,SCT,,0.00,WeatherDisplay:10.37,2013-06-15 20:30:00,
2013-06-15 16:40:00,76.6,47.6,29.90,West,273,9.0,18.0,36,0.00,SCT,,0.00,WeatherDisplay:10.37,2013-06-15 20:40:00,
2013-06-15 16:50:00,76.7,47.0,29.90,West,280,10.0,21.0,35,0.00,SCT,,0.00,WeatherDisplay:10.37,2013-06-15 20:50:00,
2013-06-15 17:00:00,76.6,46.1,29.90,WSW,250,10.0,15.0,34,0.00,SCT,,0.00,WeatherDisplay:10.37,2013-06-15 21:00:00,
2013-06-15 17:10:00,76.6,46.9,29.90,WSW,254,10.0,18.0,35,0.00,SCT,,0.00,WeatherDisplay:10.37,2013-06-15 21:10:00,
2013-06-15 17:20:00,76.6,47.6,29.90,West,260,8.0,24.0,36,0.00,SCT,,0.00,WeatherDisplay:10.37,2013-06-15 21:20:00,
2013-06-15 17:30:00,76.3,46.7,29.90,West,278,7.0,18.0,35,0.00,SCT,,0.00,WeatherDisplay:10.37,2013-06-15 21:30:00,
2013-06-15 17:40:00,76.3,47.4,29.90,WNW,282,12.0,15.0,36,0.00,SCT,,0.00,WeatherDisplay:10.37,2013-06-15 21:40:00,
2013-06-15 17:50:00,75.9,47.7,29.90,West,280,9.0,16.0,37,0.00,SCT,,0.00,WeatherDisplay:10.37,2013-06-15 21:50:00,
2013-06-15 18:00:00,75.5,46.7,29.90,West,273,6.0,21.0,36,0.00,SCT,,0.00,WeatherDisplay:10.37,2013-06-15 22:00:00,
2013-06-15 18:10:00,75.3,45.7,29.90,West,270,8.0,20.0,35,0.00,SCT,,0.00,WeatherDisplay:10.37,2013-06-15 22:10:00,
2013-06-15 18:20:00,74.7,45.2,29.90,West,265,7.0,16.0,35,0.00,SCT,,0.00,WeatherDisplay:10.37,2013-06-15 22:20:00,
2013-06-15 18:30:00,74.3,45.6,29.90,West,267,8.0,16.0,36,0.00,SCT,,0.00,WeatherDisplay:10.37,2013-06-15 22:30:00,
2013-06-15 18:40:00,74.0,46.1,29.91,WNW,284,10.0,21.0,37,0.00,SCT,,0.00,WeatherDisplay:10.37,2013-06-15 22:40:00,
2013-06-15 18:50:00,73.5,44.9,29.90,WNW,288,9.0,23.0,36,0.00,SCT,,0.00,WeatherDisplay:10.37,2013-06-15 22:50:00,
2013-06-15 19:00:00,73.1,45.3,29.90,NW,305,12.0,26.0,37,0.00,SCT,,0.00,WeatherDisplay:10.37,2013-06-15 23:00:00,
2013-06-15 19:10:00,72.8,45.7,29.90,NW,308,5.0,15.0,38,0.00,SCT,,0.00,WeatherDisplay:10.37,2013-06-15 23:10:00,
2013-06-15 19:20:00,72.4,46.0,29.91,NW,317,9.0,20.0,39,0.00,SCT,,0.00,WeatherDisplay:10.37,2013-06-15 23:20:00,
2013-06-15 19:30:00,72.0,45.0,29.91,WNW,302,12.0,20.0,38,0.00,SCT,,0.00,WeatherDisplay:10.37,2013-06-15 23:30:00,
2013-06-15 19:40:00,71.7,45.4,29.91,NW,312,3.0,15.0,39,0.00,SCT,,0.00,WeatherDisplay:10.37,2013-06-15 23:40:00,
2013-06-15 19:50:00,71.3,45.1,29.92,WNW,295,3.0,16.0,39,0.00,SCT,,0.00,WeatherDisplay:10.37,2013-06-15 23:50:00,
2013-06-15 20:00:00,70.9,46.0,29.92,WNW,287,5.0,14.0,41,0.00,SCT,,0.00,WeatherDisplay:10.37,2013-06-16 00:00:00,
2013-06-15 20:10:00,70.3,45.5,29.92,WNW,291,5.0,15.0,41,0.00,FEW,,0.00,WeatherDisplay:10.37,2013-06-16 00:10:00,
2013-06-15 20:20:00,69.8,46.3,29.92,NW,310,7.0,9.0,43,0.00,FEW,,0.00,WeatherDisplay:10.37,2013-06-16 00:20:00,
2013-06-15 20:30:00,69.1,46.9,29.92,NW,318,5.0,15.0,45,0.00,FEW,,0.00,WeatherDisplay:10.37,2013-06-16 00:30:00,
2013-06-15 20:40:00,68.5,46.3,29.92,NW,317,1.0,8.0,45,0.00,FEW,,0.00,WeatherDisplay:10.37,2013-06-16 00:40:00,
2013-06-15 20:50:00,67.9,47.0,29.92,WNW,300,0.0,9.0,47,0.00,FEW,,0.00,WeatherDisplay:10.37,2013-06-16 00:50:00,
2013-06-15 21:00:00,67.0,47.2,29.92,NW,306,2.0,6.0,49,0.00,FEW,,0.00,WeatherDisplay:10.37,2013-06-16 01:00:00,
2013-06-15 21:10:00,66.2,46.5,29.93,West,277,2.0,6.0,49,0.00,FEW,,0.00,WeatherDisplay:10.37,2013-06-16 01:10:00,
2013-06-15 21:20:00,66.0,46.9,29.93,WNW,301,5.0,8.0,50,0.00,FEW,,0.00,WeatherDisplay:10.37,2013-06-16 01:20:00,
2013-06-15 21:30:00,65.6,46.5,29.93,West,271,6.0,6.0,50,0.00,FEW,,0.00,WeatherDisplay:10.37,2013-06-16 01:30:00,
2013-06-15 21:40:00,65.4,46.2,29.94,West,273,1.0,6.0,50,0.00,FEW,,0.00,WeatherDisplay:10.37,2013-06-16 01:40:00,
2013-06-15 21:50:00,64.9,46.3,29.94,NW,304,1.0,9.0,51,0.00,FEW,,0.00,WeatherDisplay:10.37,2013-06-16 01:50:00,
2013-06-15 22:00:00,65.3,46.2,29.95,West,278,0.0,9.0,50,0.00,FEW,,0.00,WeatherDisplay:10.37,2013-06-16 02:00:00,
2013-06-15 22:10:00,65.2,45.6,29.95,West,278,1.0,8.0,49,0.00,FEW,,0.00,WeatherDisplay:10.37,2013-06-16 02:10:00,
2013-06-15 22:20:00,64.4,45.4,29.95,WNW,301,1.0,8.0,50,0.00,FEW,,0.00,WeatherDisplay:10.37,2013-06-16 02:20:00,
2013-06-15 22:30:00,63.6,46.1,29.95,WNW,286,0.0,8.0,53,0.00,FEW,,0.00,WeatherDisplay:10.37,2013-06-16 02:30:00,
2013-06-15 22:40:00,62.4,47.0,29.95,NNW,348,0.0,3.0,57,0.00,FEW,,0.00,WeatherDisplay:10.37,2013-06-16 02:40:00,
2013-06-15 22:50:00,61.1,46.2,29.95,NNW,348,0.0,0.0,58,0.00,FEW,,0.00,WeatherDisplay:10.37,2013-06-16 02:50:00,
2013-06-15 23:00:00,59.9,46.9,29.95,NNW,348,0.0,0.0,62,0.00,FEW,,0.00,WeatherDisplay:10.37,2013-06-16 03:00:00,
2013-06-15 23:10:00,58.8,45.8,29.95,NNW,348,0.0,0.0,62,0.00,FEW,,0.00,WeatherDisplay:10.37,2013-06-16 03:10:00,
2013-06-15 23:20:00,58.0,46.7,29.96,NNW,348,0.0,0.0,66,0.00,FEW,,0.00,WeatherDisplay:10.37,2013-06-16 03:20:00,
2013-06-15 23:30:00,56.9,46.5,29.95,NNW,348,0.0,3.0,68,0.00,FEW,,0.00,WeatherDisplay:10.37,2013-06-16 03:30:00,
2013-06-15 23:40:00,56.3,45.9,29.95,NNW,348,0.0,3.0,68,0.00,FEW,,0.00,WeatherDisplay:10.37,2013-06-16 03:40:00,
2013-06-15 23:50:00,56.4,46.4,29.95,NNW,348,0.0,2.0,69,0.00,FEW,,0.00,WeatherDisplay:10.37,2013-06-16 03:50:00,